Regional Weather Roundup
Issued by NWS

Home | Current Version | Previous Version | Graphics & Text | Print | Product List | Glossary On
Versions: 1 2 3 4 5 6 7 8 9 10 11 12 13 14 15 16 17 18 19 20 21 22 23 24 25 26 27 28 29 30 31 32 33 34 35 36 37 38 39 40 41 42 43 44 45 46 47 48 49 50
000
ASUS45 KBOI 281810
RWRID
WEATHER ROUNDUP FOR IDAHO
NATIONAL WEATHER SERVICE BOISE ID
1100 AM MST WED JAN 28 2015

NOTE: "FAIR" INDICATES FEW OR NO CLOUDS BELOW 12000 FEET
WITH NO SIGNIFICANT WEATHER AND/OR OBSTRUCTIONS TO VISIBILITY

IDZ012-014-281900-
SOUTHWEST IDAHO


CITY           SKY/WX    TMP DP  RH WIND       PRES   REMARKS
BOISE          FOG       32  32 100 CALM      30.37R VSB<1/4
CALDWELL       CLOUDY    32  27  80 CALM      30.40R VSB<1/4
MOUNTAIN HOME  FOG       34  34 100 W9        30.35R VSB 1/2 WCI  26
$$

IDZ016-017-281900-
SOUTHCENTRAL IDAHO


CITY           SKY/WX    TMP DP  RH WIND       PRES   REMARKS
BURLEY         CLOUDY    40  37  89 W6        30.31R
JEROME         CLOUDY    35  34  96 W8        30.32R FOG     WCI  29
TWIN FALLS     SUNNY     46  38  73 W13       30.32R
$$

IDZ019>023-281900-
SOUTHEAST IDAHO


CITY           SKY/WX    TMP DP  RH WIND       PRES   REMARKS
IDAHO FALLS    CLOUDY    37  36  96 SW12      30.29R FOG     WCI  29
POCATELLO      CLOUDY    37  37 100 SW15      30.32R FOG     WCI  28
REXBURG        HAZE      55  35  47 SW8       30.28R VSB 1/4
$$

IDZ006-010-011-018-031-032-281900-
CENTRAL IDAHO MOUNTAINS


CITY           SKY/WX    TMP DP  RH WIND       PRES   REMARKS
MCCALL         SUNNY     30  29  96 S7        30.30R FOG     WCI  23
HAILEY         PTSUNNY   37  34  87 CALM      30.29R
STANLEY          N/A     32  30  92 NW3       30.31R
SALMON         CLOUDY   N/A N/A N/A CALM      30.34R
CHALLIS        FOG       32  32 100 S5        30.31R VSB 1   WCI  27
$$

IDZ002-004-006-007-026-281900-
NORTHERN IDAHO


CITY           SKY/WX    TMP DP  RH WIND       PRES   REMARKS
LEWISTON       FOG       37  37 100 CALM      30.39R VSB 1
LOWELL           N/A     41  34  76 N3        30.41R
COEUR D`ALENE  CLOUDY    37  34  87 CALM      30.36R
MULLAN PASS    FOG       28  28 100 CALM      30.27R VSB 1
$$



USA.gov is the U.S. government's official web portal to all federal, state and local government web resources and services.